Content
SEND FEEDBACK

Daily
Averages
Monthly
Summary
United States of America

PUT IN BAY, OHIO


Home > North America > United States > Ohio
Elevation: 561 feet     Latitude: 41 39N     Longitude: 082 48W

WEATHER
 
SELECT A DAY
Number of Records: 125,373;   Date Range: 12/10/00 - 12/17/14
 
SHARE

PRINT THIS DATA

[ ← Previous Day ]
WEATHER ALMANAC - MAY 14, 2013
[ Next Day → ]
[ °C ]   °F
Weather ElementAverageHighLow
Temperature56.2 °F66.7 °F (5:00 pm)44.4 °F (1:00 am)
Dewpoint40.9 °F50.5 °F (10:00 pm)29 °F (2:00 am)
Humidity55.8 %73 % (10:00 pm)38 % (2:00 am)
Barometer29.93 in30.12 in (1:00 am)29.71 in (11:00 pm)
Wind Speed9.6 mph17.3 mph (10:00 am)
Wind Gust21.9 mph (9:00 am)
Weather ElementAverage
Wind DirectionSSE (160.4 °)

Weather ElementTotal
Precipitation---
Heating Degree Days9.5 (Base 65)
Growing Degree Days5.6 (Base 50)
Averaged from 26 records on May 14, 2013
WEATHER CONDITIONS BREAKOUT
WIND DIRECTION BREAKOUT
WEATHER BY HOUR - MAY 14, 2013
[ °C ]   °F
Local TimeTemperatureDewpointHumidityBarometerVisibilityWind DirectionWind SpeedGust SpeedPrecipitationEventsConditions
1:00 AM44.4 °F32.9 °F64 %30.12 inSouth (170°)5.8 mph
2:00 AM47.0 °F29.0 °F38 %30.10 inSouth (170°)9.2 mph
2:00 AM46.9 °F29.3 °F50 %30.10 inSouth (170°)9.2 mph
3:00 AM47.3 °F32.9 °F57 %30.08 inSouth (180°)10.4 mph
4:00 AM47.8 °F36.3 °F64 %30.07 inSouth (180°)9.2 mph
5:00 AM48.6 °F36.1 °F62 %30.08 inSSW (200°)6.9 mph
6:00 AM49.1 °F36.0 °F61 %30.07 inSSW (210°)6.9 mph
7:00 AM49.5 °F36.5 °F61 %30.07 inSSW (200°)6.9 mph
8:00 AM51.0 °F37.0 °F49 %30.05 inSouth (180°)12.7 mph
8:00 AM50.9 °F37.4 °F60 %30.05 inSouth (180°)12.7 mph
9:00 AM52.2 °F37.6 °F58 %30.02 inSouth (170°)16.1 mph21.9 mph
10:00 AM55.0 °F38.3 °F53 %30.00 inSouth (180°)17.3 mph
11:00 AM56.1 °F40.1 °F55 %29.95 inSouth (180°)16.1 mph21.9 mph
12:00 PM59.0 °F40.1 °F50 %29.94 inSouth (180°)16.1 mph
1:00 PM61.3 °F40.6 °F47 %29.90 inSSE (160°)15.0 mph20.7 mph
2:00 PM64.8 °F40.5 °F41 %29.88 inSSE (150°)15.0 mph
3:00 PM64.9 °F43.7 °F46 %29.84 inSE (140°)10.4 mph17.3 mph
4:00 PM66.2 °F46.4 °F49 %29.82 inSSE (150°)9.2 mph
5:00 PM66.7 °F46.0 °F47 %29.81 inSSE (150°)9.2 mph
6:00 PM63.9 °F47.1 °F54 %29.78 inSE (140°)8.1 mph
7:00 PM62.2 °F48.7 °F61 %29.75 inSE (130°)5.8 mph
8:00 PM63.0 °F50.0 °F54 %29.75 inEast (100°)2.3 mph
8:00 PM63.3 °F50.4 °F63 %29.75 inEast (100°)2.3 mph
9:00 PM60.1 °F50.0 °F69 %29.74 inSE (130°)4.6 mph
10:00 PM59.2 °F50.5 °F73 %29.74 inSE (130°)3.5 mph
11:00 PM60.8 °F49.1 °F65 %29.71 inSE (140°)8.1 mph
Hourly data recorded from CXHA, located miles away from Put In Bay, Ohio







STORIES FROM OUR PARTNERS